[[{"header":{"parameterUnit":"m.s-1","parameterCategory":2,"la1":30.2991,"la2":30.254,"lo1":-89.0895,"lo2":-89.0444,"dy":0.0017,"dx":0.0017,"nx":28,"ny":28,"refTime":"2024-03-20T09:00:00:Z","depth":"0","parameterNumber":2,"parameterNumberName":"U-component_of_CURRENTS"},"data":[0,0,0,0,0,0,0,0,0,0,0,0,0,0,0,0,0,0,0,0,0,0,0,0,0,0,0,0,0,0,0,0,0,0,0,0,0,0,0,0,0,0,0,0,0,0,0,0,0,0,0,0,0,0,0,0,0,0,0.2886,0.2887,0,0.2915,0.2915,0.2915,0.2935,0.2936,0.2936,0.2937,0.2955,0.2955,0.2955,0,0,0,0,0,0,0,0,0,0,0,0,0,0.2828,0.2828,0.2886,0.2887,0.2888,0.2915,0.2915,0.2915,0.2935,0.2936,0.2937,0.2937,0.2955,0.2955,0.2955,0,0,0,0,0,0,0,0,0,0,0,0,0,0.2851,0.2829,0.2886,0.2904,0.2906,0.2915,0.2915,0.2915,0.2935,0.2936,0.2937,0.2938,0.2955,0.2955,0.2955,0.2939,0,0,0.2955,0.2955,0,0,0,0,0,0,0,0,0.2849,0.2852,0.2901,0.2903,0.2906,0.2926,0.2901,0.2924,0.2935,0.292,0.2937,0.2938,0.2946,0.2947,0.2945,0.294,0.294,0.2955,0.2955,0.2955,0.2955,0,0,0,0,0,0,0,0.2848,0.2851,0.2894,0.2902,0.2905,0.2904,0.2908,0.2905,0.2925,0.2921,0.2924,0.2933,0.2947,0.2945,0.2946,0.2941,0.2955,0.2955,0.2955,0.2955,0.2927,0.2926,0,0,0,0,0,0,0.2853,0.285,0.2893,0.2895,0.2883,0.2905,0.2909,0.2915,0.2925,0.2929,0.2933,0.2934,0.2945,0.2946,0.2946,0.2955,0.2955,0.2955,0.2955,0.2927,0.2926,0.2926,0,0,0,0,0,0,0.2851,0.2856,0.2892,0.2876,0.2881,0.2905,0.2912,0.2916,0.2915,0.2935,0.2937,0.293,0.2945,0.2947,0.2935,0.2955,0.2955,0.2955,0.2928,0.2927,0.2926,0.2954,0,0,0,0,0,0,0.2849,0.2855,0.2857,0.2877,0.2883,0.2896,0.2912,0.2916,0.2922,0.2924,0.2933,0.2936,0.2946,0.2934,0.2934,0.2954,0.2955,0.2929,0.2928,0.2926,0.2954,0.2954,0.2954,0,0,0,0,0,0.2847,0.2853,0.2857,0.2862,0.2886,0.2896,0.2898,0.2915,0.2921,0.2917,0.2917,0.2935,0.2926,0.2933,0.2934,0.2954,0.293,0.2928,0.2927,0.2954,0.2954,0.2954,0,0,0,0,0,0,0.2832,0.2856,0.2861,0.2875,0.2883,0.2901,0.2907,0.291,0.2906,0.291,0.2919,0.2921,0.2921,0.292,0.2927,0.2938,0.2934,0.2932,0.2954,0.2954,0.2954,0.2985,0.2955,0,0,0,0,0,0.2828,0.2836,0.2856,0.2864,0.2872,0.2885,0.289,0.2898,0.2902,0.2902,0.2902,0.2904,0.2913,0.2918,0.2916,0.2917,0.2939,0.2929,0.2929,0.2929,0.2952,0.2987,0.2993,0.292,0.292,0.292,0,0,0.2824,0.284,0.2844,0.2861,0.2872,0.2887,0.2889,0.2899,0.2909,0.2903,0.2904,0.2899,0.2908,0.2914,0.2916,0.2919,0.2958,0.2927,0.2928,0.2951,0.2986,0.2994,0.3001,0.2919,0.2919,0.292,0,0,0.2826,0.2836,0.2846,0.2856,0.2875,0.2884,0.2885,0.2892,0.2895,0.2886,0.2895,0.2898,0.289,0.2915,0.2927,0.2921,0.2951,0.2914,0.2951,0.2984,0.2992,0.2999,0.303,0.304,0.2921,0.2921,0.2921,0,0.2823,0.2841,0.2847,0.2865,0.2886,0.2884,0.2905,0.2904,0.29,0.2915,0.2888,0.2904,0.2901,0.2949,0.2946,0.2928,0.2947,0.2957,0.2989,0.2996,0.3003,0.3033,0.3044,0.2923,0.2922,0.2922,0.2922,0,0.2835,0.2853,0.2863,0.2889,0.2904,0.2918,0.2932,0.2935,0.293,0.2936,0.2953,0.2936,0.2962,0.2951,0.2949,0.3,0.2998,0.2983,0.3,0.3013,0.3043,0.3053,0.2924,0.2924,0.2923,0.2923,0,0,0.2826,0.2865,0.2869,0.2891,0.2922,0.2936,0.2964,0.2997,0.3035,0.3001,0.3047,0.3037,0.3034,0.3045,0.3039,0.3059,0.311,0.3044,0.3045,0.3094,0.3188,0.3203,0.3216,0.3103,0.3105,0.3106,0.3189,0,0.2839,0.2875,0.2896,0.2935,0.296,0.2987,0.3016,0.3044,0.3066,0.3098,0.3092,0.3118,0.307,0.3087,0.3099,0.3111,0.3139,0.3089,0.3152,0.3155,0.3183,0.3229,0.318,0.3251,0.3199,0.3201,0.3202,0,0.2847,0.2876,0.2913,0.2974,0.299,0.3007,0.3085,0.3114,0.3172,0.3195,0.3227,0.3221,0.3253,0.3196,0.3238,0.3209,0.3209,0.3204,0.3207,0.3227,0.319,0.3228,0.3272,0.3204,0.3218,0.3217,0.3216,0,0.2837,0.2893,0.2922,0.294,0.3,0.3027,0.3065,0.3137,0.319,0.3266,0.3306,0.3336,0.3351,0.3354,0.3336,0.3298,0.338,0.3327,0.3343,0.3343,0.3319,0.3314,0.3325,0.3371,0.3371,0.337,0.337,0,0.2844,0.287,0.2913,0.2927,0.298,0.3024,0.31,0.3155,0.3246,0.3306,0.3346,0.3398,0.339,0.3421,0.3394,0.3416,0.3432,0.3378,0.3378,0.3323,0.3319,0.3272,0.3224,0.3373,0.3373,0.3372,0.3372,0,0.2821,0.2848,0.2885,0.2944,0.297,0.3003,0.3114,0.3163,0.3263,0.3346,0.337,0.3464,0.3511,0.3509,0.3535,0.35,0.3436,0.3515,0.3454,0.3446,0.338,0.3335,0.323,0.3132,0.3549,0.355,0.3551,0,0.2808,0.2821,0.2886,0.2903,0.2924,0.2992,0.3032,0.3154,0.3209,0.3374,0.3391,0.3499,0.3537,0.3614,0.3612,0.3616,0.3476,0.3563,0.3479,0.3403,0.3353,0.3185,0.3096,0.3449,0.3449,0.3449,0.3449,0,0.2783,0.2797,0.282,0.2866,0.2896,0.2963,0.3026,0.308,0.3203,0.3278,0.337,0.3432,0.3551,0.3564,0.3622,0.3609,0.3425,0.3563,0.3498,0.3306,0.3109,0.3006,0.3364,0.3449,0.3449,0.3449,0.3449,0.3449,0.2746,0.2753,0.2776,0.281,0.2848,0.2887,0.2898,0.2966,0.3045,0.3101,0.3259,0.331,0.3469,0.3559,0.3534,0.3515,0.3425,0.3431,0.3394,0.3238,0.3108,0.3478,0.3551,0.3552,0.3552,0.3553,0.3553,0,0.2682,0.2692,0.2722,0.2736,0.273,0.2798,0.2844,0.2814,0.2817,0.2943,0.3003,0.3186,0.3269,0.3364,0.3466,0.3378,0.318,0.3285,0.3035,0.2961,0.3329,0.3292,0.3295,0.3295,0.3295,0.3295,0.3295,0.3295,0.2643,0.2626,0.2639,0.2601,0.2611,0.2564,0.256,0.2527,0.2573,0.2616,0.271,0.2838,0.3143,0.3347,0.3339,0.3255,0.2985,0.2887,0.2807,0.3094,0.3103,0.3112,0.3067,0.3022,0.3022,0.2341,0.2336,0.2333]},{"header":{"parameterUnit":"m.s-1","parameterCategory":2,"la1":30.2991,"la2":30.254,"lo1":-89.0895,"lo2":-89.0444,"dy":0.0017,"dx":0.0017,"nx":28,"ny":28,"refTime":"2024-03-20T09:00:00:Z","depth":"0","parameterNumber":3,"parameterNumberName":"V-component_of_CURRENTS"},"data":[0,0,0,0,0,0,0,0,0,0,0,0,0,0,0,0,0,0,0,0,0,0,0,0,0,0,0,0,0,0,0,0,0,0,0,0,0,0,0,0,0,0,0,0,0,0,0,0,0,0,0,0,0,0,0,0,0,0,-0.005,-0.005,0,-0.0094,-0.0094,-0.0095,-0.0143,-0.0144,-0.0144,-0.0145,-0.0253,-0.0256,-0.0258,0,0,0,0,0,0,0,0,0,0,0,0,0,-0.0018,-0.0019,-0.005,-0.005,-0.0051,-0.0094,-0.0095,-0.0095,-0.0143,-0.0144,-0.0145,-0.0145,-0.0253,-0.0255,-0.0258,0,0,0,0,0,0,0,0,0,0,0,0,0,-0.0045,-0.0019,-0.005,-0.0079,-0.0082,-0.0094,-0.0095,-0.0095,-0.0143,-0.0144,-0.0145,-0.0145,-0.0252,-0.0255,-0.0259,-0.0264,0,0,-0.0269,-0.0271,0,0,0,0,0,0,0,0,-0.0044,-0.0047,-0.0074,-0.0077,-0.008,-0.0113,-0.0123,-0.0154,-0.0143,-0.0121,-0.0145,-0.0146,-0.0211,-0.0218,-0.0225,-0.0269,-0.0273,-0.027,-0.0272,-0.0273,-0.0274,0,0,0,0,0,0,0,-0.0042,-0.0045,-0.0069,-0.0074,-0.0078,-0.0093,-0.0098,-0.0129,-0.0163,-0.0123,-0.0126,-0.0129,-0.0213,-0.0222,-0.0228,-0.0275,-0.027,-0.0273,-0.0275,-0.0276,-0.0324,-0.0323,0,0,0,0,0,0,-0.0032,-0.0043,-0.0067,-0.007,-0.0062,-0.0093,-0.0098,-0.0102,-0.0161,-0.017,-0.0128,-0.0131,-0.0215,-0.0224,-0.0232,-0.0232,-0.0273,-0.0277,-0.0279,-0.0325,-0.0324,-0.0323,0,0,0,0,0,0,-0.0031,-0.0034,-0.0065,-0.0056,-0.0061,-0.0092,-0.0097,-0.0103,-0.0111,-0.0164,-0.0175,-0.0129,-0.0216,-0.0227,-0.0253,-0.0238,-0.0278,-0.0282,-0.0326,-0.0324,-0.0323,-0.0239,0,0,0,0,0,0,-0.003,-0.0033,-0.0032,-0.0056,-0.0061,-0.0062,-0.0096,-0.0103,-0.011,-0.0114,-0.0169,-0.018,-0.0218,-0.0248,-0.0257,-0.0243,-0.0284,-0.0327,-0.0325,-0.0324,-0.0243,-0.0235,-0.0228,0,0,0,0,0,-0.0029,-0.0019,-0.0032,-0.0034,-0.0059,-0.0061,-0.0065,-0.0091,-0.0109,-0.0104,-0.0142,-0.0178,-0.0244,-0.025,-0.0261,-0.0248,-0.0328,-0.0326,-0.0324,-0.0246,-0.0237,-0.0228,0,0,0,0,0,0,-0.0004,-0.0024,-0.0038,-0.0035,-0.0043,-0.0068,-0.0066,-0.0084,-0.0108,-0.0118,-0.017,-0.0183,-0.0198,-0.0233,-0.0238,-0.0256,-0.029,-0.029,-0.0228,-0.0219,-0.0212,-0.0193,-0.0287,0,0,0,0,0,0.0004,0.0002,-0.0015,-0.0013,-0.0014,-0.0039,-0.0044,-0.006,-0.0084,-0.0096,-0.0131,-0.017,-0.0197,-0.0216,-0.0245,-0.0258,-0.0292,-0.0256,-0.0248,-0.0242,-0.0233,-0.0273,-0.0269,-0.0316,-0.0316,-0.0316,0,0,0.0013,0.0003,0.0001,-0.0007,-0.0019,-0.0009,-0.0044,-0.0045,-0.0039,-0.0105,-0.011,-0.0145,-0.0194,-0.0205,-0.0215,-0.0234,-0.0244,-0.0239,-0.0233,-0.0229,-0.0271,-0.0266,-0.0262,-0.0315,-0.0315,-0.0315,0,0,0.0042,0.0025,0.0038,0.0036,0.0027,0.0014,0.0019,0.0,-0.0011,-0.002,-0.0062,-0.0086,-0.0129,-0.0157,-0.0178,-0.0149,-0.0201,-0.0157,-0.0109,-0.0147,-0.0144,-0.0141,-0.0167,-0.0168,-0.0156,-0.0156,-0.0155,0,0.0056,0.0068,0.0044,0.006,0.0062,0.0031,0.0051,0.0041,0.0016,0.0015,-0.0011,-0.006,-0.0105,-0.0116,-0.0107,-0.0132,-0.0159,-0.0138,-0.0137,-0.0136,-0.0134,-0.0163,-0.0164,-0.0151,-0.0152,-0.0152,-0.0153,0,0.0097,0.0107,0.0117,0.0123,0.0124,0.0137,0.0121,0.0123,0.0102,0.0088,0.0077,0.0021,-0.0009,-0.0024,-0.0061,-0.0065,-0.0088,-0.0121,-0.0158,-0.0124,-0.0156,-0.0159,-0.0145,-0.0147,-0.0148,-0.0149,0,0,0.0127,0.0144,0.0147,0.0166,0.0158,0.0169,0.0179,0.0186,0.0207,0.0169,0.0187,0.0131,0.0101,0.0075,0.0029,-0.0004,-0.0022,-0.0053,-0.0057,-0.0075,-0.0097,-0.0098,-0.0102,-0.0057,-0.0057,-0.0058,-0.0119,0,0.0168,0.0216,0.0206,0.0251,0.0277,0.0254,0.027,0.0267,0.0262,0.0273,0.0213,0.0207,0.0139,0.0129,0.0085,0.0009,-0.0028,-0.0002,-0.013,-0.0133,-0.0136,-0.0105,-0.0081,-0.0132,-0.0122,-0.0123,-0.0123,0,0.0212,0.0241,0.0292,0.0325,0.0333,0.0349,0.0379,0.0393,0.0391,0.0388,0.0366,0.0318,0.027,0.0205,0.0086,0.0107,0.0014,-0.0053,-0.0058,-0.009,-0.014,-0.0168,-0.0139,-0.0327,-0.0129,-0.0128,-0.0128,0,0.0255,0.0301,0.0346,0.0356,0.0385,0.0402,0.0415,0.0426,0.0466,0.0464,0.0489,0.0413,0.0394,0.0263,0.0119,0.0099,-0.0008,-0.006,-0.0149,-0.015,-0.017,-0.0172,-0.0335,-0.0149,-0.0149,-0.0149,-0.0148,0,0.0302,0.034,0.0372,0.0398,0.0463,0.0453,0.0525,0.0534,0.0568,0.0642,0.055,0.0591,0.0408,0.0322,0.0161,0.0012,0.0016,-0.0128,-0.0163,-0.0138,-0.0137,-0.0335,-0.0431,-0.0151,-0.015,-0.015,-0.015,0,0.0338,0.0358,0.0421,0.0464,0.0487,0.053,0.0607,0.0665,0.0679,0.0774,0.0776,0.073,0.0624,0.0431,0.024,0.0092,-0.017,-0.0133,-0.0082,-0.0109,-0.037,-0.046,-0.0645,-0.0723,-0.0241,-0.0241,-0.0242,0,0.036,0.0397,0.0475,0.0527,0.055,0.0622,0.0681,0.0722,0.0804,0.0876,0.0934,0.086,0.0848,0.0562,0.028,0.0006,-0.0174,-0.0154,-0.0197,-0.0371,-0.0499,-0.0572,-0.063,-0.0192,-0.0191,-0.0191,-0.0191,0,0.0407,0.0433,0.0487,0.0599,0.0672,0.0772,0.0864,0.095,0.1022,0.1101,0.1198,0.1187,0.0932,0.0681,0.0304,0.0108,-0.0274,-0.016,-0.0362,-0.0483,-0.0552,-0.0647,-0.0164,-0.019,-0.019,-0.019,-0.019,-0.0191,0.0442,0.0494,0.0574,0.068,0.0776,0.0913,0.1015,0.1129,0.1274,0.1417,0.1403,0.1433,0.1057,0.0553,0.0249,-0.0275,-0.0288,-0.0438,-0.0535,-0.0594,-0.0668,-0.017,-0.0223,-0.0223,-0.0224,-0.0224,-0.0224,0,0.0493,0.0557,0.0657,0.0793,0.0914,0.0956,0.1137,0.125,0.1435,0.1567,0.1651,0.1513,0.1027,0.0524,-0.018,-0.0577,-0.0724,-0.0796,-0.0913,-0.0957,-0.0534,-0.053,-0.0625,-0.0625,-0.0625,-0.0625,-0.0624,-0.0624,0.0524,0.0624,0.068,0.0887,0.0991,0.1171,0.1285,0.1444,0.1578,0.1754,0.1808,0.1814,0.1451,0.0149,-0.076,-0.0971,-0.1245,-0.1302,-0.1455,-0.1192,-0.1167,-0.1143,-0.1165,-0.1391,-0.1392,-0.1827,-0.1832,-0.1835]}],[{"header":{"parameterUnit":"m.s-1","parameterCategory":2,"la1":30.2991,"la2":30.254,"lo1":-89.0895,"lo2":-89.0444,"dy":0.0017,"dx":0.0017,"nx":28,"ny":28,"refTime":"2024-03-20T09:00:00:Z","depth":"2","parameterNumber":2,"parameterNumberName":"U-component_of_CURRENTS"},"data":[0,0,0,0,0,0,0,0,0,0,0,0,0,0,0,0,0,0,0,0,0,0,0,0,0,0,0,0,0,0,0,0,0,0,0,0,0,0,0,0,0,0,0,0,0,0,0,0,0,0,0,0,0,0,0,0,0,0,0.2207,0.2207,0,0.2242,0.2242,0.2243,0.2277,0.2277,0.2278,0.2279,0.2331,0.2332,0.2332,0,0,0,0,0,0,0,0,0,0,0,0,0,0.2178,0.2178,0.2207,0.2207,0.2208,0.2242,0.2242,0.2243,0.2277,0.2277,0.2278,0.2279,0.233,0.2331,0.2332,0,0,0,0,0,0,0,0,0,0,0,0,0,0.2198,0.2178,0.2207,0.223,0.2233,0.2242,0.2242,0.2243,0.2276,0.2277,0.2278,0.2279,0.233,0.2331,0.2333,0.2322,0,0,0.2336,0.2337,0,0,0,0,0,0,0,0,0.2197,0.2199,0.2226,0.2229,0.2232,0.2258,0.2251,0.2271,0.2276,0.2258,0.2279,0.228,0.2308,0.2311,0.2313,0.2324,0.2327,0.2336,0.2337,0.2338,0.2338,0,0,0,0,0,0,0,0.2195,0.2197,0.2219,0.2227,0.223,0.2243,0.2246,0.2255,0.2277,0.226,0.2263,0.2269,0.231,0.2312,0.2315,0.2327,0.2336,0.2338,0.2338,0.2339,0.2386,0.2386,0,0,0,0,0,0,0.2193,0.2196,0.2218,0.222,0.2218,0.2242,0.2246,0.2247,0.2276,0.2282,0.2268,0.2271,0.2309,0.2313,0.2317,0.2364,0.2338,0.2339,0.234,0.2385,0.2386,0.2386,0,0,0,0,0,0,0.2192,0.2194,0.2216,0.2211,0.2215,0.2242,0.2242,0.2247,0.2264,0.2283,0.2289,0.2282,0.231,0.2315,0.2338,0.2364,0.2339,0.2341,0.2385,0.2385,0.2386,0.2421,0,0,0,0,0,0,0.2191,0.2193,0.2198,0.221,0.2215,0.2232,0.2242,0.2247,0.2267,0.227,0.2297,0.2302,0.2311,0.2336,0.2339,0.2365,0.2342,0.2384,0.2385,0.2386,0.2419,0.2423,0.2426,0,0,0,0,0,0.219,0.2189,0.2198,0.2201,0.2219,0.2233,0.2236,0.2258,0.2266,0.2276,0.2294,0.2302,0.2345,0.2337,0.2341,0.2368,0.2383,0.2385,0.2386,0.2418,0.2422,0.2426,0,0,0,0,0,0,0.2174,0.2193,0.2203,0.2208,0.2225,0.224,0.2251,0.2262,0.2282,0.229,0.2304,0.2311,0.2342,0.2344,0.2335,0.2383,0.2367,0.2368,0.239,0.2394,0.2397,0.2412,0.2343,0,0,0,0,0,0.2174,0.2183,0.2201,0.2206,0.2215,0.2234,0.2245,0.2259,0.2276,0.2286,0.2303,0.2323,0.2346,0.2361,0.2375,0.2397,0.2411,0.2417,0.242,0.2423,0.2436,0.2474,0.2483,0.239,0.239,0.239,0,0,0.217,0.2182,0.2187,0.2205,0.2219,0.2238,0.2243,0.2262,0.2285,0.2288,0.2322,0.2334,0.2353,0.2383,0.2397,0.2391,0.2456,0.2424,0.2427,0.2439,0.2476,0.2486,0.2494,0.2391,0.2391,0.239,0,0,0.2169,0.2177,0.2189,0.2206,0.2233,0.2244,0.2252,0.2274,0.2294,0.232,0.2335,0.2363,0.2386,0.2413,0.2428,0.2455,0.2471,0.2459,0.2494,0.253,0.2539,0.2546,0.2574,0.2584,0.2464,0.2464,0.2464,0,0.2171,0.2183,0.2194,0.2213,0.2235,0.2249,0.2273,0.229,0.2318,0.2343,0.2336,0.2395,0.2405,0.246,0.2472,0.2466,0.2486,0.2479,0.2537,0.2544,0.2551,0.2578,0.2589,0.2466,0.2465,0.2465,0.2465,0,0.2179,0.2198,0.2205,0.2237,0.2258,0.2279,0.2307,0.2331,0.2351,0.2375,0.2429,0.2442,0.2485,0.2488,0.249,0.2552,0.2548,0.2535,0.2529,0.2563,0.2589,0.2599,0.2468,0.2468,0.2467,0.2467,0,0,0.217,0.2207,0.2212,0.2236,0.2277,0.2293,0.2336,0.2382,0.2423,0.2446,0.2504,0.2535,0.2551,0.2568,0.2578,0.2605,0.2665,0.2596,0.2597,0.263,0.2749,0.273,0.274,0.2666,0.2668,0.267,0.2746,0,0.2182,0.2219,0.2237,0.2278,0.2305,0.2338,0.2378,0.2423,0.2463,0.2517,0.2549,0.2601,0.258,0.2611,0.2637,0.2665,0.2695,0.2646,0.2706,0.2708,0.2693,0.2752,0.255,0.26,0.2756,0.2758,0.2759,0,0.2186,0.2218,0.2259,0.2315,0.233,0.2353,0.243,0.2473,0.2551,0.2588,0.2646,0.2673,0.2736,0.2701,0.2773,0.2746,0.2755,0.2762,0.2765,0.2746,0.271,0.2591,0.2613,0.2776,0.2774,0.2773,0.2772,0,0.218,0.2229,0.2265,0.2284,0.2348,0.2377,0.2415,0.2494,0.2554,0.2644,0.2693,0.2761,0.2808,0.2833,0.2854,0.2825,0.2922,0.288,0.2871,0.2869,0.2709,0.269,0.2929,0.2929,0.2929,0.2929,0.2929,0,0.2185,0.2212,0.2259,0.2284,0.233,0.238,0.245,0.25,0.2602,0.2665,0.2731,0.2796,0.2845,0.2901,0.2898,0.2931,0.2963,0.29,0.2898,0.2715,0.2696,0.2852,0.2842,0.2932,0.2931,0.2931,0.293,0,0.2165,0.22,0.2241,0.2307,0.2327,0.2361,0.2462,0.2509,0.2612,0.2699,0.2735,0.2854,0.2927,0.2965,0.3022,0.2994,0.3019,0.3016,0.2799,0.2772,0.2926,0.2917,0.3017,0.3017,0.3017,0.3018,0.3018,0,0.2149,0.217,0.2243,0.2261,0.2285,0.2349,0.2387,0.2501,0.2555,0.2719,0.2747,0.2878,0.293,0.3032,0.3027,0.3043,0.3055,0.2852,0.2758,0.2952,0.2941,0.2931,0.2922,0.2552,0.2548,0.2545,0.2543,0,0.2125,0.2153,0.2182,0.223,0.226,0.2307,0.2369,0.2417,0.2539,0.2617,0.2719,0.2791,0.2911,0.2864,0.2915,0.2884,0.2835,0.2794,0.3063,0.257,0.2522,0.2508,0.2513,0.2516,0.2519,0.2521,0.2522,0.2523,0.209,0.2099,0.2146,0.2165,0.2205,0.2231,0.2229,0.2307,0.2381,0.2452,0.2595,0.2627,0.2697,0.2687,0.262,0.2575,0.2754,0.2617,0.2622,0.2631,0.2573,0.2529,0.2513,0.2515,0.2517,0.2519,0.2521,0,0.2036,0.2057,0.208,0.2091,0.2079,0.215,0.2181,0.2156,0.2174,0.2299,0.237,0.2241,0.2258,0.2311,0.2222,0.2241,0.2167,0.2134,0.2015,0.2048,0.2075,0.1982,0.1768,0.1765,0.1762,0.1759,0,0,0.2016,0.2005,0.2005,0.1953,0.1963,0.1919,0.191,0.1901,0.1956,0.1959,0.1983,0.2179,0.2283,0.1998,0.198,0.1858,0.1921,0.1786,0.2405,0.2301,0.2323,0.2389,0.229,0,0,0,0,0]},{"header":{"parameterUnit":"m.s-1","parameterCategory":2,"la1":30.2991,"la2":30.254,"lo1":-89.0895,"lo2":-89.0444,"dy":0.0017,"dx":0.0017,"nx":28,"ny":28,"refTime":"2024-03-20T09:00:00:Z","depth":"2","parameterNumber":3,"parameterNumberName":"V-component_of_CURRENTS"},"data":[0,0,0,0,0,0,0,0,0,0,0,0,0,0,0,0,0,0,0,0,0,0,0,0,0,0,0,0,0,0,0,0,0,0,0,0,0,0,0,0,0,0,0,0,0,0,0,0,0,0,0,0,0,0,0,0,0,0,0.0106,0.0106,0,0.0057,0.0056,0.0055,0.001,0.001,0.0009,0.0009,-0.0099,-0.0102,-0.0104,0,0,0,0,0,0,0,0,0,0,0,0,0,0.0128,0.0128,0.0106,0.0106,0.0105,0.0057,0.0056,0.0055,0.001,0.001,0.0009,0.0009,-0.0099,-0.0102,-0.0105,0,0,0,0,0,0,0,0,0,0,0,0,0,0.01,0.0128,0.0106,0.0079,0.0076,0.0057,0.0056,0.0055,0.001,0.001,0.0009,0.0009,-0.0098,-0.0101,-0.0105,-0.012,0,0,-0.0117,-0.0119,0,0,0,0,0,0,0,0,0.0102,0.0099,0.0083,0.0081,0.0078,0.0041,0.0024,-0.0005,0.001,0.0032,0.0009,0.0008,-0.0056,-0.0063,-0.0074,-0.0125,-0.0129,-0.0117,-0.012,-0.0121,-0.0122,0,0,0,0,0,0,0,0.0104,0.0101,0.0084,0.0083,0.008,0.0058,0.0054,0.0018,-0.0012,0.003,0.0028,0.0027,-0.0058,-0.007,-0.0077,-0.0131,-0.0117,-0.0121,-0.0123,-0.0125,-0.0197,-0.0197,0,0,0,0,0,0,0.0118,0.0103,0.0086,0.0083,0.0092,0.0059,0.0053,0.0051,-0.001,-0.0019,0.0027,0.0025,-0.0063,-0.0073,-0.0081,-0.0093,-0.0121,-0.0125,-0.0127,-0.0198,-0.0197,-0.0197,0,0,0,0,0,0,0.0118,0.0117,0.0088,0.0094,0.0089,0.0059,0.0057,0.0051,0.0039,-0.0011,-0.0022,0.0022,-0.0064,-0.0076,-0.0111,-0.0098,-0.0127,-0.013,-0.0198,-0.0198,-0.0197,-0.0122,0,0,0,0,0,0,0.0119,0.0117,0.0118,0.0095,0.0089,0.0082,0.0057,0.005,0.004,0.0037,-0.0019,-0.003,-0.0065,-0.0105,-0.0115,-0.0103,-0.0133,-0.0199,-0.0198,-0.0197,-0.0125,-0.0119,-0.0113,0,0,0,0,0,0.012,0.0129,0.0119,0.0116,0.0093,0.0083,0.0077,0.0053,0.0041,0.0039,0.0001,-0.0028,-0.0107,-0.0108,-0.0119,-0.0109,-0.0199,-0.0198,-0.0197,-0.0127,-0.012,-0.0113,0,0,0,0,0,0,0.0139,0.0125,0.0113,0.0116,0.0102,0.0076,0.0074,0.0058,0.0027,0.0022,-0.0028,-0.0041,-0.0064,-0.0099,-0.0098,-0.0128,-0.0156,-0.0157,-0.0098,-0.0092,-0.0086,-0.0065,-0.0137,0,0,0,0,0,0.0146,0.0146,0.0129,0.013,0.0127,0.0101,0.0093,0.0078,0.0051,0.0037,0.0001,-0.0039,-0.0069,-0.009,-0.0123,-0.0144,-0.0177,-0.0144,-0.0138,-0.0133,-0.0123,-0.0167,-0.0164,-0.0194,-0.0194,-0.0194,0,0,0.0152,0.0146,0.0144,0.0134,0.0121,0.0125,0.0095,0.0089,0.0091,0.0029,0.0017,-0.0021,-0.007,-0.0089,-0.0102,-0.0118,-0.0141,-0.0132,-0.0127,-0.012,-0.0166,-0.0163,-0.0161,-0.0193,-0.0193,-0.0193,0,0,0.0174,0.0163,0.0173,0.0167,0.0156,0.0143,0.0145,0.0123,0.011,0.0091,0.0054,0.0024,-0.0027,-0.0054,-0.0076,-0.0061,-0.0107,-0.007,-0.0027,-0.007,-0.0067,-0.0066,-0.0098,-0.01,-0.0069,-0.0069,-0.0069,0,0.0181,0.0195,0.0174,0.0186,0.0189,0.0156,0.0172,0.0157,0.0125,0.0122,0.0096,0.0036,-0.0009,-0.0025,-0.002,-0.0047,-0.0076,-0.0048,-0.0061,-0.0061,-0.0061,-0.0094,-0.0097,-0.0065,-0.0066,-0.0066,-0.0066,0,0.0213,0.0224,0.0232,0.0237,0.0235,0.0244,0.0226,0.0222,0.0201,0.0183,0.0162,0.0102,0.0068,0.005,0.0017,0.0005,-0.0017,-0.0047,-0.0075,-0.0053,-0.0089,-0.0094,-0.006,-0.0061,-0.0062,-0.0063,0,0,0.0229,0.0251,0.0253,0.0272,0.0266,0.0273,0.0278,0.0278,0.0293,0.0247,0.0255,0.0196,0.0165,0.0139,0.0094,0.0056,0.0029,0.0012,0.0008,-0.0012,-0.0055,-0.0069,-0.0076,-0.0004,-0.0004,-0.0005,-0.0079,0,0.0261,0.0305,0.0301,0.034,0.0364,0.0345,0.0358,0.0351,0.0335,0.0333,0.0272,0.0256,0.0199,0.0185,0.0139,0.0059,0.002,0.0053,-0.008,-0.0084,-0.0094,-0.0081,-0.0057,-0.0121,-0.0084,-0.0085,-0.0085,0,0.0294,0.0324,0.0371,0.0409,0.0417,0.043,0.0454,0.0464,0.0448,0.0437,0.0406,0.0355,0.0301,0.0244,0.012,0.0144,0.0056,-0.0013,-0.0019,-0.006,-0.0106,-0.0141,-0.0132,-0.0094,-0.0093,-0.0092,-0.0092,0,0.0328,0.0373,0.0417,0.0429,0.0461,0.0478,0.0493,0.0494,0.0524,0.0504,0.0515,0.0435,0.0402,0.028,0.0135,0.0126,-0.0006,-0.0043,-0.0138,-0.014,-0.0159,-0.0162,-0.0132,-0.0132,-0.0131,-0.0131,-0.0131,0,0.0367,0.0403,0.044,0.0466,0.0528,0.0526,0.0587,0.0591,0.0611,0.0658,0.0574,0.0584,0.0409,0.031,0.0166,0.0007,0.0012,-0.0123,-0.0159,-0.0132,-0.0131,-0.0142,-0.0142,-0.0134,-0.0133,-0.0133,-0.0132,0,0.0397,0.0418,0.0479,0.0526,0.0548,0.0593,0.0664,0.0711,0.0715,0.0771,0.0769,0.0696,0.0568,0.0386,0.0189,0.0059,-0.0103,-0.0163,-0.0112,-0.014,-0.0216,-0.0211,-0.0274,-0.0275,-0.0276,-0.0277,-0.0277,0,0.0417,0.0452,0.053,0.0578,0.0602,0.0673,0.0728,0.0763,0.0824,0.0847,0.0881,0.0776,0.0722,0.0431,0.0174,-0.0078,-0.0109,-0.0214,-0.0233,-0.0201,-0.023,-0.0224,-0.0219,-0.0231,-0.0231,-0.0231,-0.0231,0,0.0459,0.0484,0.0538,0.0641,0.0708,0.0801,0.0882,0.095,0.0996,0.103,0.106,0.1013,0.0744,0.049,0.0146,-0.0019,-0.0174,-0.0225,-0.0213,-0.0193,-0.0166,-0.0192,-0.0188,-0.0233,-0.0233,-0.0233,-0.0232,-0.0232,0.049,0.0539,0.0614,0.0712,0.08,0.0916,0.0998,0.1083,0.1179,0.1243,0.1198,0.1133,0.0848,0.041,0.0108,-0.0199,-0.0185,-0.0286,-0.0284,-0.0282,-0.0258,-0.0233,-0.0308,-0.0309,-0.0309,-0.0309,-0.0309,0,0.0533,0.0592,0.0684,0.0804,0.0907,0.095,0.1095,0.1172,0.1281,0.1333,0.1345,0.1082,0.0788,0.0459,-0.0004,-0.0277,-0.0293,-0.0352,-0.0317,-0.0313,-0.031,-0.0287,-0.0346,-0.0347,-0.0348,-0.0349,0,0,0.0558,0.0649,0.0701,0.0873,0.0962,0.1108,0.1195,0.1292,0.1361,0.1408,0.1378,0.1308,0.0898,0.0561,0.0181,-0.0088,-0.0131,-0.0131,-0.0071,0.0021,0.0027,-0.024,-0.0196,0,0,0,0,0]}],[{"header":{"parameterUnit":"m.s-1","parameterCategory":2,"la1":30.2991,"la2":30.254,"lo1":-89.0895,"lo2":-89.0444,"dy":0.0017,"dx":0.0017,"nx":28,"ny":28,"refTime":"2024-03-20T09:00:00:Z","depth":"4","parameterNumber":2,"parameterNumberName":"U-component_of_CURRENTS"},"data":[0,0,0,0,0,0,0,0,0,0,0,0,0,0,0,0,0,0,0,0,0,0,0,0,0,0,0,0,0,0,0,0,0,0,0,0,0,0,0,0,0,0,0,0,0,0,0,0,0,0,0,0,0,0,0,0,0,0,0.1278,0.1279,0,0.1369,0.137,0.1371,0.1436,0.1437,0.1437,0.1438,0.1527,0.1529,0.1531,0,0,0,0,0,0,0,0,0,0,0,0,0,0.1176,0.1178,0.1278,0.1279,0.128,0.1368,0.137,0.1371,0.1436,0.1437,0.1437,0.1438,0.1527,0.1529,0.1531,0,0,0,0,0,0,0,0,0,0,0,0,0,0.1239,0.1178,0.1278,0.1323,0.1328,0.1368,0.137,0.1371,0.1436,0.1437,0.1437,0.1438,0.1526,0.1529,0.1531,0.1533,0,0,0.154,0.1541,0,0,0,0,0,0,0,0,0.1235,0.1243,0.1315,0.132,0.1326,0.1392,0.1367,0.1425,0.1436,0.1395,0.1438,0.1439,0.1481,0.1488,0.1503,0.1537,0.1541,0.154,0.1542,0.1543,0.1544,0,0,0,0,0,0,0,0.1231,0.1239,0.1314,0.1316,0.1323,0.1344,0.1354,0.1378,0.1432,0.1399,0.1403,0.1413,0.1484,0.15,0.1506,0.1542,0.154,0.1543,0.1544,0.1546,0.1685,0.1687,0,0,0,0,0,0,0.1218,0.1235,0.1311,0.1316,0.1281,0.1345,0.1356,0.137,0.1432,0.1443,0.1412,0.1416,0.1495,0.1502,0.1509,0.1601,0.1543,0.1546,0.1547,0.1683,0.1685,0.1687,0,0,0,0,0,0,0.1216,0.1224,0.1307,0.1277,0.129,0.1346,0.1361,0.1371,0.142,0.1443,0.1454,0.1454,0.1496,0.1505,0.1564,0.1601,0.1547,0.155,0.168,0.1683,0.1686,0.1728,0,0,0,0,0,0,0.1212,0.1223,0.1243,0.1277,0.1291,0.1353,0.1361,0.1372,0.1422,0.1429,0.1481,0.1489,0.1497,0.156,0.1567,0.1604,0.1552,0.1678,0.1682,0.1685,0.1724,0.1732,0.1739,0,0,0,0,0,0.1208,0.1227,0.1243,0.1253,0.1312,0.1354,0.1365,0.1406,0.1424,0.1452,0.1491,0.1489,0.1589,0.1564,0.1572,0.161,0.1676,0.1681,0.1685,0.1721,0.1731,0.1739,0,0,0,0,0,0,0.1197,0.1236,0.1255,0.1287,0.1328,0.1366,0.1398,0.1424,0.1477,0.1493,0.1512,0.1522,0.1589,0.1596,0.1568,0.1663,0.1633,0.1639,0.1658,0.1667,0.1675,0.1673,0.1554,0,0,0,0,0,0.1202,0.1228,0.1268,0.1298,0.132,0.1365,0.1393,0.1424,0.1467,0.1493,0.1529,0.157,0.1608,0.1635,0.1668,0.1717,0.1723,0.1749,0.1757,0.1763,0.1769,0.1811,0.1822,0.1702,0.1702,0.1702,0,0,0.1206,0.1232,0.1248,0.1298,0.1335,0.1369,0.1386,0.144,0.1478,0.1492,0.1566,0.1599,0.1628,0.1687,0.1717,0.1701,0.1802,0.1769,0.1773,0.1776,0.1817,0.1828,0.1839,0.1705,0.1704,0.1704,0,0,0.1217,0.1253,0.1277,0.1311,0.1369,0.1396,0.1417,0.1477,0.1519,0.1585,0.1607,0.1664,0.1724,0.1752,0.1771,0.1839,0.184,0.1858,0.1895,0.1936,0.1946,0.1955,0.1977,0.1987,0.1861,0.1862,0.1862,0,0.1227,0.1255,0.1293,0.1323,0.1355,0.1409,0.1444,0.149,0.1565,0.1605,0.1618,0.1728,0.1752,0.1819,0.1847,0.1855,0.1875,0.1854,0.1944,0.1953,0.1961,0.1982,0.1993,0.1864,0.1864,0.1864,0.1863,0,0.1246,0.128,0.13,0.1352,0.1393,0.1436,0.1495,0.1555,0.161,0.1654,0.1751,0.1795,0.186,0.1879,0.1885,0.1963,0.1957,0.1946,0.1916,0.1976,0.1994,0.2004,0.1868,0.1867,0.1866,0.1866,0,0,0.1239,0.1301,0.1312,0.1338,0.1414,0.1447,0.1521,0.1598,0.1656,0.1738,0.1816,0.1889,0.1929,0.1953,0.1978,0.2015,0.2087,0.2013,0.2014,0.2025,0.2178,0.2047,0.2045,0.2098,0.2101,0.2102,0.2166,0,0.1249,0.1297,0.1331,0.1387,0.1417,0.1487,0.1545,0.1626,0.1706,0.1796,0.1867,0.195,0.1952,0.2002,0.2042,0.2085,0.2118,0.207,0.2127,0.2129,0.1996,0.2054,0.2109,0.2174,0.2176,0.2178,0.2179,0,0.1252,0.1285,0.1335,0.1403,0.1426,0.147,0.1581,0.1646,0.1773,0.184,0.1939,0.2003,0.2097,0.2083,0.218,0.2156,0.2174,0.2191,0.2193,0.2062,0.2017,0.2104,0.2198,0.2196,0.2195,0.2193,0.2192,0,0.1211,0.1286,0.1325,0.135,0.1435,0.1484,0.1547,0.1666,0.174,0.1886,0.1961,0.2068,0.215,0.2195,0.2248,0.223,0.2335,0.2307,0.2201,0.2192,0.227,0.226,0.2363,0.2363,0.2363,0.2363,0.2363,0,0.1185,0.1221,0.1314,0.1328,0.1395,0.147,0.156,0.1642,0.1777,0.1866,0.1988,0.2072,0.2188,0.2266,0.2281,0.2276,0.2365,0.2215,0.2203,0.2286,0.2278,0.2277,0.2266,0.2365,0.2365,0.2364,0.2364,0,0.1124,0.1182,0.1232,0.133,0.137,0.1424,0.1563,0.1624,0.1762,0.1889,0.1947,0.2111,0.2206,0.2287,0.237,0.2309,0.2318,0.2289,0.2381,0.2372,0.2136,0.2127,0.217,0.2166,0.2163,0.216,0.2158,0,0.1094,0.1111,0.122,0.1258,0.1306,0.1403,0.1462,0.1606,0.1679,0.1892,0.194,0.2101,0.219,0.2202,0.2284,0.23,0.2272,0.2255,0.2182,0.2134,0.2119,0.2115,0.2111,0.2152,0.2151,0.215,0.215,0,0.1031,0.1079,0.1117,0.1197,0.1265,0.1337,0.1441,0.1487,0.1656,0.1797,0.19,0.1968,0.2069,0.2126,0.2161,0.2164,0.2253,0.2219,0.2224,0.2156,0.2113,0.21,0.21,0.2138,0.214,0.2141,0.2141,0,0.0991,0.1004,0.106,0.1128,0.1207,0.1251,0.1318,0.1406,0.1498,0.1728,0.1756,0.1915,0.2054,0.2057,0.2087,0.2086,0.2047,0.1968,0.1986,0.2,0.1913,0.1832,0.1768,0,0,0,0,0,0.0945,0.0945,0.0989,0.1047,0.1122,0.1172,0.1292,0.1363,0.1531,0.1559,0.1657,0.1743,0.1815,0.1891,0.1855,0.2001,0.2045,0.1949,0.196,0.2073,0.2086,0.2,0,0,0,0,0,0,0.0906,0.0935,0.0951,0.0972,0.0999,0.1068,0.114,0.1252,0.1278,0.1454,0.15,0.1631,0.172,0.1817,0.1821,0.1842,0.1812,0.2044,0.2039,0.2065,0.2077,0.2088,0.2004,0,0,0,0,0]},{"header":{"parameterUnit":"m.s-1","parameterCategory":2,"la1":30.2991,"la2":30.254,"lo1":-89.0895,"lo2":-89.0444,"dy":0.0017,"dx":0.0017,"nx":28,"ny":28,"refTime":"2024-03-20T09:00:00:Z","depth":"4","parameterNumber":3,"parameterNumberName":"V-component_of_CURRENTS"},"data":[0,0,0,0,0,0,0,0,0,0,0,0,0,0,0,0,0,0,0,0,0,0,0,0,0,0,0,0,0,0,0,0,0,0,0,0,0,0,0,0,0,0,0,0,0,0,0,0,0,0,0,0,0,0,0,0,0,0,0.0161,0.016,0,0.0123,0.0122,0.0122,0.0096,0.0096,0.0096,0.0096,0.0014,0.0012,0.0009,0,0,0,0,0,0,0,0,0,0,0,0,0,0.0175,0.0175,0.0161,0.016,0.016,0.0123,0.0122,0.0121,0.0096,0.0096,0.0096,0.0096,0.0014,0.0012,0.0009,0,0,0,0,0,0,0,0,0,0,0,0,0,0.0155,0.0175,0.0161,0.0144,0.0142,0.0123,0.0122,0.0121,0.0096,0.0096,0.0096,0.0096,0.0015,0.0012,0.0009,-0.0011,0,0,-0.0001,-0.0002,0,0,0,0,0,0,0,0,0.0156,0.0154,0.0147,0.0145,0.0143,0.0116,0.0097,0.0076,0.0096,0.0111,0.0096,0.0096,0.0045,0.0039,0.003,-0.0014,-0.0018,-0.0001,-0.0003,-0.0005,-0.0006,0,0,0,0,0,0,0,0.0157,0.0155,0.0144,0.0147,0.0144,0.0126,0.0124,0.0093,0.0077,0.011,0.0109,0.0107,0.0043,0.0033,0.0028,-0.0019,-0.0001,-0.0004,-0.0006,-0.0007,-0.008,-0.008,0,0,0,0,0,0,0.0168,0.0157,0.0145,0.0143,0.0152,0.0127,0.0123,0.0123,0.0078,0.0072,0.0107,0.0106,0.0039,0.0032,0.0025,0.0013,-0.0005,-0.0008,-0.001,-0.008,-0.008,-0.008,0,0,0,0,0,0,0.0168,0.0167,0.0147,0.015,0.0147,0.0127,0.0126,0.0122,0.0115,0.0077,0.0069,0.0105,0.0039,0.0029,0.0,0.0009,-0.0009,-0.0012,-0.008,-0.008,-0.008,-0.002,0,0,0,0,0,0,0.0169,0.0167,0.017,0.0151,0.0147,0.0139,0.0126,0.0122,0.0115,0.0113,0.0072,0.0064,0.0038,0.0006,-0.0003,0.0004,-0.0015,-0.008,-0.008,-0.008,-0.0022,-0.0017,-0.0014,0,0,0,0,0,0.0169,0.0175,0.0171,0.0169,0.0152,0.0139,0.0135,0.012,0.0115,0.0112,0.0085,0.0065,0.0,0.0003,-0.0007,-0.0,-0.008,-0.008,-0.008,-0.0023,-0.0018,-0.0014,0,0,0,0,0,0,0.0181,0.0173,0.0167,0.017,0.0158,0.0136,0.0134,0.0123,0.01,0.0099,0.0062,0.0052,0.0032,0.0004,0.0008,-0.0022,-0.0042,-0.0044,0.0004,0.0008,0.0012,0.0031,-0.0017,0,0,0,0,0,0.0186,0.0189,0.0175,0.0177,0.0174,0.0155,0.0148,0.0138,0.0117,0.0107,0.008,0.0049,0.0024,0.0008,-0.002,-0.004,-0.007,-0.0043,-0.0039,-0.0035,-0.0027,-0.0069,-0.0068,-0.0079,-0.0079,-0.0079,0,0,0.0191,0.0187,0.0188,0.0179,0.017,0.0172,0.0151,0.0145,0.0146,0.0101,0.0091,0.0061,0.0022,0.0004,-0.0008,-0.0019,-0.0047,-0.0035,-0.0032,-0.0025,-0.0069,-0.0068,-0.0067,-0.0079,-0.0079,-0.0079,0,0,0.0203,0.0199,0.0207,0.0203,0.0194,0.0184,0.0185,0.0167,0.0159,0.0142,0.0115,0.009,0.0048,0.0026,0.0008,0.0013,-0.0024,0.0005,0.0038,-0.0004,-0.0003,-0.0002,-0.0034,-0.0037,0.0005,0.0005,0.0005,0,0.0207,0.0219,0.0206,0.0213,0.0218,0.0194,0.0206,0.0193,0.0167,0.0164,0.0147,0.0096,0.006,0.0043,0.0047,0.0023,-0.0004,0.0026,0.0003,0.0002,0.0001,-0.0031,-0.0035,0.0008,0.0008,0.0008,0.0007,0,0.0226,0.0238,0.0243,0.0249,0.0249,0.0254,0.0242,0.0238,0.0225,0.021,0.0191,0.0142,0.0114,0.0098,0.0073,0.0057,0.0039,0.0015,-0.0005,0.0006,-0.0029,-0.0034,0.0012,0.0011,0.001,0.001,0,0,0.0231,0.0253,0.0256,0.0273,0.0272,0.0276,0.0281,0.0281,0.0289,0.0255,0.0258,0.0211,0.0187,0.0165,0.0129,0.0094,0.0063,0.0059,0.0055,0.0035,-0.0021,-0.0029,-0.0036,0.0035,0.0034,0.0033,-0.0042,0,0.025,0.0283,0.0286,0.0318,0.0336,0.0328,0.034,0.0335,0.032,0.0314,0.0268,0.0252,0.0212,0.0199,0.0159,0.0087,0.0052,0.0087,-0.0036,-0.0039,-0.0042,-0.0042,0.0031,-0.0046,-0.0047,-0.0048,-0.0049,0,0.0268,0.0292,0.033,0.0368,0.0375,0.0389,0.0409,0.0416,0.0401,0.039,0.0365,0.0323,0.0277,0.0236,0.0126,0.015,0.0075,0.0015,0.0009,-0.0021,-0.0057,-0.0063,-0.0059,-0.0058,-0.0058,-0.0057,-0.0056,0,0.0284,0.0323,0.0361,0.0372,0.0405,0.0424,0.044,0.044,0.0458,0.0439,0.0441,0.0376,0.0344,0.0244,0.0123,0.0121,-0.0006,-0.003,-0.0106,-0.0108,-0.0104,-0.0104,-0.0109,-0.0109,-0.0109,-0.0109,-0.0109,0,0.0304,0.0335,0.0375,0.0396,0.0449,0.0458,0.0504,0.0508,0.0519,0.0543,0.0486,0.0476,0.0343,0.0253,0.0139,0.0004,0.0002,-0.0097,-0.0128,-0.0077,-0.0073,-0.0108,-0.0107,-0.0112,-0.0111,-0.0111,-0.011,0,0.0315,0.0339,0.039,0.0438,0.046,0.0497,0.0559,0.0587,0.0593,0.0619,0.0616,0.0547,0.0429,0.0289,0.012,0.003,-0.0104,-0.0153,-0.0078,-0.0104,-0.0181,-0.0176,-0.0242,-0.0243,-0.0244,-0.0244,-0.0245,0,0.0323,0.035,0.0423,0.046,0.0487,0.0548,0.0592,0.0623,0.0657,0.0659,0.0671,0.0573,0.0506,0.0278,0.0118,-0.0097,-0.0131,-0.0195,-0.0194,-0.0171,-0.0195,-0.0189,-0.0183,-0.0246,-0.0246,-0.0247,-0.0247,0,0.0341,0.0367,0.041,0.049,0.0546,0.0617,0.068,0.0712,0.0744,0.0747,0.0717,0.0598,0.0466,0.0282,0.0114,-0.0042,-0.015,-0.0204,-0.0204,-0.0203,-0.0177,-0.0199,-0.0192,-0.025,-0.0249,-0.0249,-0.0249,0,0.0354,0.0386,0.0445,0.0516,0.0591,0.0662,0.0698,0.074,0.0774,0.0775,0.0758,0.0618,0.0537,0.0309,0.0152,-0.0001,-0.0044,-0.009,-0.0097,-0.0096,-0.0036,0.0021,-0.0015,0,0,0,0,0,0.0365,0.0402,0.0467,0.0547,0.0622,0.067,0.0747,0.0776,0.0806,0.0794,0.0782,0.0659,0.0432,0.0335,0.018,0.0119,-0.0082,-0.0068,-0.0142,-0.0265,-0.0262,-0.0217,0,0,0,0,0,0,0.037,0.0429,0.0464,0.056,0.0618,0.0706,0.0758,0.078,0.0781,0.0783,0.0669,0.0616,0.0396,0.0519,0.0175,0.0128,0.006,-0.0172,-0.0176,-0.0266,-0.0264,-0.0261,-0.0215,0,0,0,0,0]}]]